Location: Hains Lake
(37.8540°N, 99.8578°W)
Time: 15:35:08
(UTC+00:00)

Vanguard 1 - Visible Passes

Search period start: 19 April 2021 00:00
Search period end: 29 April 2021 00:00
Orbit: 648 x 3834 km, 34.3° (Epoch: 18 April)

Date Brightness Start Highest point End Pass type
(mag) Time Alt. Az. Time Alt. Az. Time Alt. Az.
19 Apr 13.0 03:27:25 10° W 03:47:55 41° SW 03:58:16 25° S visible
20 Apr 13.2 01:22:00 10° W 01:44:17 65° SSW 02:04:34 10° SE visible
20 Apr 13.2 03:49:41 10° W 04:08:26 33° SW 04:18:03 22° S visible
21 Apr 13.3 01:43:29 10° W 02:05:27 57° SSW 02:25:08 10° SE visible
21 Apr 13.4 04:12:31 10° W 04:28:48 25° SW 04:37:52 18° SSW visible
22 Apr 13.4 02:05:05 10° W 02:26:27 50° SW 02:45:01 11° SSE visible
22 Apr 13.6 04:36:27 10° W 04:49:05 18° SW 04:57:44 13° SSW visible
23 Apr 13.5 02:26:54 10° W 02:47:15 42° SW 03:04:54 11° SSE visible
23 Apr 13.8 05:03:32 10° WSW 05:09:20 12° WSW 05:14:44 10° SW visible
24 Apr 13.6 02:49:01 10° W 03:07:56 34° SW 03:24:48 10° SSE visible
25 Apr 13.7 03:11:43 10° W 03:28:30 26° SW 03:43:39 10° S visible
26 Apr 13.8 03:35:27 10° W 03:48:59 19° SW 04:01:28 10° SSW visible
27 Apr 13.7 01:27:15 10° W 01:46:22 41° SW 02:06:06 10° SSE visible
27 Apr 14.0 04:01:48 10° WSW 04:09:27 13° SW 04:16:46 10° SW visible
28 Apr 13.8 01:49:16 10° W 02:07:13 34° SW 02:25:34 10° SSE visible
